Regional Weather Roundup
Issued by NWS

Home | Current Version | Previous Version | Text Only | Print | Product List | Glossary On
Versions: 1 2 3 4 5 6 7 8 9 10 11 12 13 14 15 16 17 18 19 20 21 22 23 24 25 26 27 28 29 30 31 32 33 34 35 36 37 38 39 40 41 42 43 44 45 46 47 48 49 50
000
ASUS45 KTFX 270404
RWRMT
MONTANA HOURLY WEATHER ROUNDUP
NATIONAL WEATHER SERVICE GREAT FALLS MT
1004 PM MDT THU MAR 26 2015

NOTE: "FAIR" INDICATES FEW OR NO CLOUDS BELOW 12000 FEET WITH NO
SIGNIFICANT WEATHER AND/OR OBSTRUCTIONS TO VISIBILITY.

* THESE STATIONS ARE NOT UNDER NWS QUALITY CONTROL. THEY DO NOT
   REPORT WEATHER SUCH AS PRECIPITATION OR FOG.

MTZ001>007-043-270500-
WEST OF THE DIVIDE
CITY           SKY/WX    TMP DP  RH WIND       PRES   REMARKS
KALISPELL      FOG       39  39 100 CALM      30.25S VSB 3
MISSOULA       CLEAR     45  39  80 CALM      30.29S
BUTTE          MOCLDY    46  34  63 W6        30.31R
MULLAN PASS    PTCLDY    43  36  76 SW6       30.29F
* ESSEX        N/A       41  38  89 N/A        N/A
* LINCOLN      N/A       48  38  68 W3G9       N/A
* LOOKOUT PASS N/A       41  39  93 S1         N/A
* POLSON       N/A       46  41  83 SE1        N/A
* RONAN APT    PTCLDY    48  43  83 N/A        N/A
* SEELEY LAKE  N/A       41  38  89 E1G6       N/A
* THOMP F APT  PTCLDY    44  28  53 N5         N/A
$$

MTZ008-052>055-270500-
SOUTHWEST MONTANA
CITY           SKY/WX    TMP DP  RH WIND       PRES   REMARKS
BOZEMAN        PTCLDY    48  36  63 E7        30.26R
DILLON         CLOUDY    50  34  54 S7        30.29R
* W YELLOWSTON PTCLDY    37  30  76 SW1        N/A
* THREE FORKS  PTCLDY    54  39  57 N/A        N/A
* TWIN BRIDGES CLOUDY    54  32  43 N5         N/A
* BOULDER HILL N/A       49  29  46 SW2G16     N/A
* HOMESTAKE PS N/A       44  33  65 NW9G15     N/A
* MONIDA PASS  N/A       40  31  70 N/A        N/A
* RAYNOLDS PAS N/A       37  23  57 S6         N/A   WCI  32
* WHITEHALL    N/A       54  36  51 W7G12      N/A
* WISE RIVER   N/A       44  33  65 N3G8       N/A
$$

MTZ009>010-012-014-046-048-049-054-270500-
EAST SLOPES AND CENTRAL MONTANA
CITY           SKY/WX    TMP DP  RH WIND       PRES   REMARKS
CUT BANK       MOCLDY    50  37  61 W20       30.08S
GREAT FALLS    PTCLDY    48  36  63 SW10      30.12S
HELENA         MOCLDY    55  37  51 W13G21    30.21F
MALMSTROM AFB  MOCLDY    48  37  66 SW14      30.13R
* DEARBORN     N/A       54  37  53 NE1G9      N/A
* EAST GLACIER N/A       49  37  63 NW24G34    N/A
* MONARCH      N/A       47  27  46 W11G22     N/A
* PENDROY      N/A       51  32  48 W12G20     N/A
* ROGERS PASS  N/A       45  36  71 SE13G28    N/A
$$

MTZ011-013-016-021-035-040-045-047-050-051-270500-
NORTH CENTRAL MONTANA
CITY           SKY/WX    TMP DP  RH WIND       PRES   REMARKS
HAVRE          CLOUDY    52  37  57 SW10      30.04R
LEWISTOWN      CLOUDY    54  36  51 NW10      30.12R
* N BAR RANCH  CLEAR     54  34  47 NW9G18    30.10R
* MALTA APT    MOCLDY    46  28  50 N/A        N/A
* CHESTER      N/A       52  38  59 W8G16      N/A
* DENTON       N/A       55  32  42 W16        N/A
* GEYSER       N/A       52  30  43 W26G32     N/A
* JUDITH GAP   N/A       49  33  54 W17        N/A
* LOMA         N/A       58  36  44 W7         N/A
$$

MTZ017>020-022>027-061-062-270500-
NORTHEAST MONTANA
CITY           SKY/WX    TMP DP  RH WIND       PRES   REMARKS
GLASGOW        CLOUDY    43  32  65 E16       30.04S
GLENDIVE       CLOUDY    41  32  70 SE5       30.11S
JORDAN         CLOUDY    48  34  59 CALM      30.04S
SIDNEY         CLOUDY    37  30  76 S7        30.13S WCI  32
WOLF POINT     CLOUDY    41  34  76 NE7       30.08F
* BEAVER HILL  N/A       37  31  79 SE17G26    N/A   WCI  27
* CIRCLE       N/A       44  34  68 SE4G9      N/A
* LINDSAY DVD  N/A       38  32  79 E8         N/A   WCI  32
* NAVAJO       N/A       36  30  79 S8         N/A   WCI  30
* SACO         N/A       42  34  73 NE12       N/A
$$

MTZ028>042-056>058-270500-
SOUTHCENTRAL AND SOUTHEAST MONTANA
CITY           SKY/WX    TMP DP  RH WIND       PRES   REMARKS
BAKER          CLOUDY    39  32  76 S14       30.12S WCI  31
BILLINGS       MOCLDY    57  36  46 W16       30.10R
LIVINGSTON     PTCLDY    50  34  54 NW8       30.22R
MILES CITY     CLOUDY    46  28  50 SE6       30.06S
* LAUREL APT   PTCLDY    57  34  42 W11G17     N/A
* ROUNDUP APT  CLOUDY    57  34  42 W10G15     N/A
* ALZADA       N/A       40  31  70 E7         N/A   WCI  35
* HYSHAM       N/A       52  32  47 N1         N/A
* LAME DEER    N/A       47  33  58 SE2        N/A
* REED POINT   N/A       57  33  40 W19G25     N/A
* ROSCOE HILL  N/A       53  17  24 SW6G12     N/A
$$

REGIONAL REPORTS...DAKOTAS
CITY           SKY/WX    TMP DP  RH WIND       PRES   REMARKS
WILLISTON      CLOUDY    37  27  67 SE8       30.14S WCI  31
DICKINSON      CLOUDY    32  27  82 S9        30.14S WCI  24
CROSBY         CLEAR     34  28  79 S10       30.14F WCI  26
WATFORD CITY   CLEAR     36  28  73 SE8       30.13S WCI  30
BISMARCK       CLEAR     25  18  75 E7        30.25S WCI  17
GRAND FORKS    CLEAR     19  14  81 N3        30.31S
FARGO          CLEAR     19  10  68 N5        30.30S WCI  12
BUFFALO SD     CLOUDY    36  32  85 SE10      30.09S WCI  29
RAPID CITY     CLOUDY    34  27  76 SE10      30.17R WCI  26
$$

REGIONAL REPORTS...WYOMING/IDAHO/WASHINGTON
CITY           SKY/WX    TMP DP  RH WIND       PRES   REMARKS
GILLETTE       LGT RAIN  43  37  79 SE6       30.12R
SHERIDAN       CLOUDY    48  37  66 W8        30.10S
CODY           PTCLDY    54  30  40 W15G30    30.16R
YELLOWSTONE LA PTCLDY    30  28  92 CALM      30.39R
SALMON         CLEAR    N/A N/A N/A CALM      30.28S
MULLAN PASS    PTCLDY    43  36  76 SW6       30.29S
SAND POINT     PTCLDY    46  46 100 CALM      30.23S
SPOKANE        PTCLDY    55  45  69 CALM      30.21S

$$



USA.gov is the U.S. government's official web portal to all federal, state and local government web resources and services.